Lewistown, MT

6:56 AM MDT on April 30, 2017 (GMT -0600)
Lewistown Municipal

Weather History for KLWT - February, 2013

Change the Weather History Date:

Saturday, February 2, 2013

  Actual Average Record
Temperature  
Mean Temperature 27 °F 24 °F  
Max Temperature 35 °F 35 °F 66 °F (1906)
Min Temperature 18 °F 14 °F -34 °F (1989)
Degree Days  
Heating Degree Days 38 41  
Month to date heating degree days 74 82  
Since 1 July heating degree days 4499 4787  
Cooling Degree Days 0 0  
Month to date cooling degree days 0 0  
Year to date cooling degree days 0 0  
Moisture  
Dew Point 20 °F    
Average Humidity 70    
Maximum Humidity 77    
Minimum Humidity 63    
Precipitation  
Precipitation 0.00 in 0.01 in 0.36 in (1994)
Month to date precipitation 0.02 0.03  
Year to date precipitation 1.01 0.60  
Snow  
Snow 0.00 in - - ()
Snow Depth -    
Sea Level Pressure  
Sea Level Pressure 30.29 in    
Wind  
Wind Speed 13 mph (WSW)    
Max Wind Speed 21 mph    
Max Gust Speed 24 mph    
Visibility 10 miles    
Events      
T = Trace of Precipitation, MM = Missing Value Source: NWS Daily Summary

Daily Weather History Graph

Daily Weather History Graph

Search for Another Location

Airport or City:

Trip Planner

Search our weather history database for the weather conditions in past years. The results will help you decide how hot, cold, wet, or windy it might be!

Date:

Astronomy

Feb. 02, 2013 Rise Set
Actual Time 7:41 AM MST 5:22 PM MST
Civil Twilight 7:08 AM MST 5:55 PM MST
Nautical Twilight 6:32 AM MST 6:31 PM MST
Astronomical Twilight 5:56 AM MST 7:07 PM MST
Moon 12:01 AM MST (2/2) 10:23 AM MST (2/2)
Length of Visible Light 10h 46m
Length of Day
9h 41m
Waning Gibbous, 59% of the Moon is Illuminated
Feb 2
Waning Gibbous
Feb 3
Last Quarter
Feb 10
New
Feb 17
First Quarter
Feb 25
Full

Hourly Weather History & Observations

Time (MST) Temp. Windchill Dew Point Humidity Pressure Visibility Wind Dir Wind Speed Gust Speed Precip Events Conditions
12:54 AM 19.0 °F 9.0 °F 12.9 °F 77% 30.28 in 10.0 mi SW 8.1 mph - N/A   Clear
1:54 AM 23.0 °F 14.7 °F 16.0 °F 74% 30.26 in 10.0 mi SSW 6.9 mph - N/A   Clear
2:54 AM 24.1 °F 15.2 °F 17.1 °F 75% 30.25 in 10.0 mi West 8.1 mph - N/A   Clear
3:54 AM 25.0 °F 10.9 °F 17.1 °F 72% 30.25 in 10.0 mi SW 19.6 mph - N/A   Clear
4:54 AM 25.0 °F 12.2 °F 17.1 °F 72% 30.27 in 10.0 mi SW 16.1 mph - N/A   Clear
5:54 AM 26.1 °F 14.0 °F 17.1 °F 69% 30.27 in 10.0 mi WSW 15.0 mph 20.7 mph N/A   Clear
6:54 AM 26.1 °F 12.3 °F 17.1 °F 69% 30.29 in 10.0 mi SW 19.6 mph - N/A   Clear
7:54 AM 27.0 °F 21.6 °F 17.1 °F 66% 30.32 in 10.0 mi WNW 4.6 mph - N/A   Clear
8:54 AM 28.9 °F 21.9 °F 19.0 °F 67% 30.35 in 10.0 mi WSW 6.9 mph - N/A   Mostly Cloudy
9:54 AM 30.0 °F 20.0 °F 21.0 °F 69% 30.35 in 10.0 mi West 12.7 mph - N/A   Mostly Cloudy
10:54 AM 30.9 °F 21.2 °F 23.0 °F 72% 30.37 in 10.0 mi West 12.7 mph - N/A   Clear
11:54 AM 34.0 °F 26.0 °F 25.0 °F 70% 30.38 in 10.0 mi West 10.4 mph - N/A   Clear
12:54 PM 33.1 °F 25.5 °F 26.1 °F 75% 30.37 in 10.0 mi West 9.2 mph - N/A   Clear
1:54 PM 34.0 °F 28.0 °F 25.0 °F 70% 30.34 in 10.0 mi West 6.9 mph - N/A   Clear
2:54 PM 34.0 °F 26.6 °F 25.0 °F 70% 30.32 in 10.0 mi SW 9.2 mph - N/A   Clear
3:54 PM 32.0 °F 23.6 °F 24.1 °F 73% 30.30 in 10.0 mi SW 10.4 mph - N/A   Clear
4:54 PM 28.9 °F 18.6 °F 21.9 °F 75% 30.30 in 10.0 mi SW 12.7 mph - N/A   Clear
5:54 PM 28.9 °F 17.3 °F 19.9 °F 69% 30.30 in 10.0 mi SW 16.1 mph - N/A   Clear
6:54 PM 30.0 °F 18.3 °F 21.0 °F 69% 30.28 in 10.0 mi SW 17.3 mph - N/A   Clear
7:54 PM 30.0 °F 18.3 °F 19.9 °F 66% 30.26 in 10.0 mi SW 17.3 mph - N/A   Clear
8:54 PM 30.0 °F 18.3 °F 19.9 °F 66% 30.24 in 10.0 mi WSW 17.3 mph - N/A   Clear
9:54 PM 28.9 °F 18.6 °F 18.0 °F 64% 30.22 in 10.0 mi SW 12.7 mph - N/A   Clear
10:54 PM 28.9 °F 16.5 °F 18.0 °F 64% 30.20 in 10.0 mi SW 18.4 mph - N/A   Clear
11:54 PM 28.9 °F 17.7 °F 18.0 °F 64% 30.17 in 10.0 mi SW 15.0 mph - N/A   Clear